Starlink 30939

operational
NORAD ID: 58393 Int'l Des: 2023-178 Owner: SPXS Country: US Constellation: starlink
LEOCIRCULAR

Starlink 30939について

説明を読み込み中...

リアルタイム位置

3D地球を読み込み中...

次回通過

高度履歴

Altitude vs Time

uPlot chart will show altitude changes over time

軌道要素

1 58393U 23178V 25304.12449244 -.00002007 00000-0 -55690-4 0 9993
2 58393 53.1589 242.9431 0001083 82.5839 277.5285 15.30188008109924
Epoch: Oct 31, 2025 • Age: 17 hours

現在のステータス

高度 486.1 km
速度 7.62 km/s
衛星直下点 -33.26°S, 130.63°W
打ち上げ日 Nov 20, 2023
運用期間 1.9 years
タイプ internet

技術仕様

分類 Payload
質量 730.00 kg
乾燥質量 700.00 kg
総質量 730.00 kg
長さ 0.30 m
直径 4.10 m
スパン 29.00 m
形状 Box + pan
製造者 SPXS
バスタイプ Starlink V2M
フェーズステータス In Orbit
所有者/国 SPXS/US

大規模コンステレーション

Loading constellations...